Location: Miami, Florida
(25.6830°N, 80.1700°W)
Time: 16:38:45
(UTC-04:00)

N. Korean satellite - Visible Passes

Search period start: 23 February 2018 00:00
Search period end: 05 March 2018 00:00
Orbit: 459 x 514 km, 97.2° (Epoch: 23 February)

Date Brightness Start Highest point End Pass type
(mag) Time Alt. Az. Time Alt. Az. Time Alt. Az.
23 Feb 10.5 06:56:47 10° ENE 06:58:20 12° E 06:59:54 10° ESE visible
24 Feb 9.7 20:06:59 10° SW 20:09:28 19° W 20:12:00 10° NW visible
25 Feb 7.9 19:42:23 10° S 19:45:41 44° W 19:49:00 10° NNW visible
26 Feb 9.4 07:17:31 10° NE 07:20:39 25° E 07:23:47 10° SSE visible
27 Feb 10.5 06:55:24 10° ENE 06:56:50 12° E 06:58:16 10° ESE visible
28 Feb 9.6 20:05:19 10° SW 20:07:55 20° W 20:10:31 10° NW visible
02 Mar 9.5 07:16:01 10° NE 07:19:07 24° E 07:22:13 10° SSE visible
03 Mar 10.6 06:54:01 10° ENE 06:55:17 11° E 06:56:32 10° ESE visible
04 Mar 9.6 20:03:37 10° SSW 20:06:18 21° W 20:09:01 10° NW visible
